User: anonymous   Login
Location: Unspecified
(0.0000°N, 0.0000°E)
Time: 04:34:37
(UTC+00:00)
Language:

SES 20 - Orbit

View from above orbital plane
View from above orbital plane
View from above satellite
View from above satellite

Ground track
Ground track

The orbit is defined by the following mean orbital elements,

1 53960U          26144.49390316 +.00000000 +00000-0 +00000-0 0 00008
2 53960   0.0468  94.6663 0001905 348.6628 233.4603  1.00269485    05
Epoch (UTC): 24 May 2026 11:51:13
Eccentricity: 0.0001905
inclination: 0.0468°
perigee height: 35779 km
apogee height: 35795 km
right ascension of ascending node: 94.6663°
argument of perigee: 348.6628°
revolutions per day: 1.00269485
mean anomaly at epoch: 233.4603°

The dashed part of the orbit path shows where the satellite is in the earth's shadow,  

DLR